Simultaneous Nadir Overpasses (SNOs) Predictions

Prediction of SNOs between GOES-15 and NOAA-20 Satellite Orbit:

Table of predicted SNOs for the next 14.0 days since TLE Epoch: 7/5/2019
Index Date Time (GOES-15) GOES-15 Lat,Lon NOAA-20 Lat,Lon Distance(km) Time Diff (sec)
1 07/06/2019 22:08:21 0.14,-127.66 -0.64,-131.12 395.00 80
2 07/07/2019 21:52:16 0.13,-127.62 0.35,-126.59 117.85 80
3 07/09/2019 10:11:23 -0.15,-127.57 0.81,-131.86 488.84 80
4 07/10/2019 09:55:17 -0.14,-127.53 -0.19,-127.32 23.49 80
5 07/12/2019 21:55:47 0.16,-127.41 -0.01,-128.08 76.97 80
6 07/13/2019 21:39:42 0.15,-127.37 0.99,-123.55 435.27 80
7 07/15/2019 09:58:49 -0.18,-127.31 0.17,-128.82 172.14 80
8 07/16/2019 09:42:44 -0.17,-127.26 -0.82,-124.28 339.55 80
9 07/17/2019 22:01:59 0.20,-127.18 -0.37,-129.58 274.45 80
10 07/18/2019 21:45:53 0.19,-127.13 0.63,-125.05 237.47 80




NCC Satellite Simultaneous Nadir Overpasses (SNOs) Prediction Service
